World > North America > United States > Massachusetts > Hardwick   Town of Hardwick, MA

Hardwick, MA Hourly Weather Updates

Feedback E-mail the Weather

Quick Clicks

Hardwick, MA Weather Maps

°F °C°F °C
Hardwick Weather Map
UTC Time: 6/19/2024, 19:28
Your Time:

Hardwick, MA Regional Weather

Expires:202406192000;;307809
ASUS41 KOKX 191910
RWROKX

Regional Weather Roundup
National Weather Service New York NY
300 PM EDT WED JUN 19 2024

Note: "FAIR" indicates few or no clouds below 12,000 feet with no
significant weather and/or obstructions to visibility.


CTZ002-004>006-009-010-012-RIZ004-006-007-MAZ004-011-015-192000-
Southern New England

 In CT
  
CITY           SKY/WX    TMP DP  RH WIND       PRES   REMARKS
Bradley Intl   MOSUNNY   96  72  45 SW14G21   30.27S HX 104           
Hartford       MOSUNNY   91  72  53 SW9       30.27S HX  98           
Danbury        MOSUNNY   91  69  48 S7        30.32S HX  96           
Wtrbury/Oxford MOSUNNY   88  73  61 SW8       30.34S HX  95           
Norwalk Harbor   N/A    N/A N/A N/A E2          N/A                   
Bridgeport     MOSUNNY   85  71  63 S12       30.32R HX  90           
Meriden        MOSUNNY   88  66  48 S12G23    30.30S HX  90           
New Haven      MOSUNNY   84  72  67 S7        30.32S                  
Chester        MOSUNNY   86  72  62 S8G16     30.33F HX  92           
Groton         MOSUNNY   78  70  76 S7        30.32F                  
Willimantic    MOSUNNY   89  72  56 S14       30.29F HX  96           

 In RI
  
CITY           SKY/WX    TMP DP  RH WIND       PRES   REMARKS
Providence     PTSUNNY   90  73  57 SW14G22   30.29F HX  98           
Block Island   SUNNY     74  64  71 SW20G28   30.34                   
Westerly       SUNNY     80  66  62 SW12G20   30.33F                  
 
In MA
  
CITY           SKY/WX    TMP DP  RH WIND       PRES   REMARKS
Boston         PTSUNNY   94  73  50 SW15G22   30.24F HX 103           
Worcester      MOSUNNY   90  71  53 SW12      30.31F HX  96           
Westfield      MOSUNNY   93  75  55 S10       30.26F HX 104           
Provincetown   SUNNY     79  68  69 SW18G26   30.29S                  
Nantucket      SUNNY     72  66  81 SW15      30.35F                  
$$


SKY/WX - Weather  TMP - Temperature  DP - Dew Point  RH - Humidity
WIND - Wind Direction/Speed PRES - Barometric Pressure VSB - Visibility
WCI - Wind Chill Index E13G22 Wind - East Wind 13 mph/Gusts of 22 mph

Trending Headlines

Trending Entertainment Headlines

Hardwick Radar Loop

Use the map search tool if you want to place a location marker on the radar map...

Hardwick Quick Facts

National Two Day Weather Forecast


E-mail the Hardwick Weather Forecast

Voice your opinion or tell us about page issues...